Location: Rounton
(54.4000°N, 1.3500°W)
Time: 07:07:38
(UTC+00:00)

SR - Pass Details

Date: 04 December 2021
Orbit: 582 x 872 km, 66.7° (Epoch: 23 January)

Event Time Altitude Azimuth Distance (km) Brightness Sun altitude
Exits shadow 06:32:18 13° 329° (NNW) 1,711 ? -12.8°
Maximum altitude 06:35:50 42° 38° (NE) 856 ? -12.4°
Drops below altitude 10° 06:40:00 10° 110° (ESE) 1,967 ? -11.8°
Sets 06:42:25 0° 117° (ESE) 2,903 ? -11.5°
